Weather History for LEPA - April, 2012

Change the Weather History Date:

Thursday, April 12, 2012

  Actual Average Record
Temperature  
Mean Temperature 54 °F -  
Max Temperature 64 °F 69 °F 76 °F (2014)
Min Temperature 44 °F 49 °F 37 °F (2006)
Degree Days  
Heating Degree Days 11    
Growing Degree Days 4 (Base 50)    
Moisture  
Dew Point 51 °F    
Average Humidity 85    
Maximum Humidity 100    
Minimum Humidity 64    
Precipitation  
Precipitation 0.00 in 0.05 in - ()
Sea Level Pressure  
Sea Level Pressure 29.67 in    
Wind  
Wind Speed 2 mph ()    
Max Wind Speed 13 mph    
Max Gust Speed -    
Visibility 6.7 miles    
Events Rain    
Averages and records for this station are not official NWS values.
T = Trace of Precipitation, MM = Missing Value Source: Averaged Metar Reports

Daily Weather History Graph

Daily Weather History Graph

Search for Another Location

Airport or City:

Trip Planner

Search our weather history database for the weather conditions in past years. The results will help you decide how hot, cold, wet, or windy it might be!

Date:

Astronomy

Apr. 12, 2012 Rise Set
Actual Time 7:15 AM CEST 8:24 PM CEST
Civil Twilight 6:48 AM CEST 8:51 PM CEST
Nautical Twilight 6:15 AM CEST 9:25 PM CEST
Astronomical Twilight 5:40 AM CEST 9:59 PM CEST
Moon 1:58 AM CEST (4/12) 11:54 AM CEST (4/12)
Length of Visible Light 14h 03m
Length of Day
13h 08m
Waning Gibbous, 61% of the Moon is Illuminated
Apr 12
Waning Gibbous
Apr 13
Last Quarter
Apr 21
New
Apr 29
First Quarter
May 6
Full

Hourly Weather History & Observations

Time (CEST) Temp. Dew Point Humidity Pressure Visibility Wind Dir Wind Speed Gust Speed Precip Events Conditions
12:00 AM 50.0 °F 46.4 °F 87% 29.83 in - NE 2.3 mph - N/A   Clear
12:30 AM 50.0 °F 46.4 °F 87% 29.83 in - Calm Calm - N/A   Clear
1:00 AM 48.2 °F 44.6 °F 87% 29.83 in - NNE 2.3 mph - N/A   Clear
1:30 AM 48.2 °F 44.6 °F 87% 29.80 in - NNE 1.2 mph - N/A   Clear
2:00 AM 47 °F 45 °F 89% 29.81 in 10 mi Calm Calm - -  
2:00 AM 46.4 °F 44.6 °F 93% 29.80 in - Calm Calm - N/A   Clear
2:30 AM 46.4 °F 44.6 °F 93% 29.80 in - Calm Calm - N/A   Clear
3:00 AM 46.4 °F 42.8 °F 87% 29.80 in 6.2 mi Calm Calm - N/A   Partly Cloudy
3:30 AM 46.4 °F 44.6 °F 93% 29.77 in 6.2 mi NE 1.2 mph - N/A   Partly Cloudy
4:00 AM 44.6 °F 42.8 °F 93% 29.74 in 6.2 mi Calm Calm - N/A   Partly Cloudy
4:30 AM 44.6 °F 42.8 °F 93% 29.74 in 6.2 mi NNE 2.3 mph - N/A   Partly Cloudy
5:00 AM 46.4 °F 42.8 °F 87% 29.71 in 6.2 mi Calm Calm - N/A   Partly Cloudy
5:30 AM 44.6 °F 42.8 °F 93% 29.71 in 6.2 mi Calm Calm - N/A   Partly Cloudy
6:00 AM 44.6 °F 42.8 °F 93% 29.71 in 6.2 mi Calm Calm - N/A   Scattered Clouds
6:30 AM 48.2 °F 46.4 °F 93% 29.71 in 6.2 mi Calm Calm - N/A   Scattered Clouds
7:00 AM 48.2 °F 46.4 °F 93% 29.68 in 6.2 mi Calm Calm - N/A   Mostly Cloudy
7:30 AM 48.2 °F 46.4 °F 93% 29.68 in 6.2 mi Calm Calm - N/A   Mostly Cloudy
8:00 AM 50 °F 48 °F 90% 29.71 in 16 mi Calm Calm - -   Mostly Cloudy
8:00 AM 50.0 °F 48.2 °F 94% 29.71 in 6.2 mi Calm Calm - N/A   Mostly Cloudy
8:30 AM 51.8 °F 50.0 °F 94% 29.71 in 6.2 mi Calm Calm - N/A   Mostly Cloudy
9:00 AM 53.6 °F 51.8 °F 94% 29.71 in 6.2 mi Calm Calm - N/A   Mostly Cloudy
9:30 AM 59.0 °F 55.4 °F 88% 29.71 in 6.2 mi Variable 1.2 mph - N/A   Mostly Cloudy
10:00 AM 60.8 °F 55.4 °F 82% 29.68 in 6.2 mi Calm Calm - N/A   Mostly Cloudy
10:30 AM 62.6 °F 55.4 °F 77% 29.68 in 6.2 mi Calm Calm - N/A   Mostly Cloudy
11:00 AM 62.6 °F 53.6 °F 72% 29.68 in 6.2 mi SW 4.6 mph - N/A   Mostly Cloudy
11:30 AM 62.6 °F 55.4 °F 77% 29.68 in 6.2 mi SW 9.2 mph - N/A   Mostly Cloudy
12:00 PM 62.6 °F 55.4 °F 77% 29.68 in 6.2 mi SW 11.5 mph - N/A   Mostly Cloudy
12:30 PM 62.6 °F 53.6 °F 72% 29.65 in 6.2 mi SW 8.1 mph - N/A   Mostly Cloudy
1:00 PM 64.4 °F 51.8 °F 64% 29.65 in 6.2 mi WSW 6.9 mph - N/A   Scattered Clouds
1:30 PM 64.4 °F 53.6 °F 68% 29.65 in 6.2 mi SW 5.8 mph - N/A   Scattered Clouds
2:00 PM 63 °F 54 °F 64% 29.65 in 19 mi WSW 6.9 mph - -   Mostly Cloudy
2:00 PM 62.6 °F 53.6 °F 72% 29.65 in 6.2 mi SW 6.9 mph - N/A   Scattered Clouds
2:30 PM 62.6 °F 53.6 °F 72% 29.65 in 6.2 mi SW 4.6 mph - N/A   Scattered Clouds
3:00 PM 62.6 °F 55.4 °F 77% 29.62 in 6.2 mi SW 9.2 mph - N/A   Scattered Clouds
3:30 PM 62.6 °F 55.4 °F 77% 29.62 in 6.2 mi WSW 12.7 mph - N/A   Scattered Clouds
4:00 PM 62.6 °F 55.4 °F 77% 29.62 in 6.2 mi SSW 10.4 mph - N/A   Scattered Clouds
4:30 PM 60.8 °F 55.4 °F 82% 29.59 in 6.2 mi SSW 11.5 mph - N/A   Scattered Clouds
5:00 PM 60.8 °F 55.4 °F 82% 29.59 in 6.2 mi SW 11.5 mph - N/A   Scattered Clouds
5:30 PM 60.8 °F 55.4 °F 82% 29.59 in 6.2 mi SSW 8.1 mph - N/A   Scattered Clouds
6:00 PM 60.8 °F 55.4 °F 82% 29.59 in 6.2 mi SW 5.8 mph - N/A   Scattered Clouds
6:30 PM 60.8 °F 55.4 °F 82% 29.59 in 6.2 mi SSW 5.8 mph - N/A   Scattered Clouds
7:00 PM 60.8 °F 55.4 °F 82% 29.59 in 6.2 mi SW 3.5 mph - N/A   Mostly Cloudy
7:30 PM 60.8 °F 55.4 °F 82% 29.59 in 6.2 mi SSW 3.5 mph - N/A   Scattered Clouds
8:00 PM 60.8 °F 55.4 °F 82% 29.59 in 6.2 mi SSW 1.2 mph - N/A   Scattered Clouds
8:30 PM 60.8 °F 55.4 °F 82% 29.56 in 6.2 mi Calm Calm - N/A   Scattered Clouds
9:00 PM 59.0 °F 55.4 °F 88% 29.56 in 6.2 mi South 3.5 mph - N/A   Scattered Clouds
9:30 PM 59.0 °F 55.4 °F 88% 29.59 in 6.2 mi Variable 2.3 mph - N/A Rain Light Rain
10:00 PM 59.0 °F 55.4 °F 88% 29.59 in 6.2 mi SSE 2.3 mph - N/A   Scattered Clouds
10:30 PM 59.0 °F 55.4 °F 88% 29.59 in 6.2 mi SE 1.2 mph - N/A Rain Light Rain
11:00 PM 59.0 °F 57.2 °F 94% 29.56 in 5.0 mi SE 1.2 mph - N/A Rain Light Rain
11:08 PM 59.0 °F 57.2 °F 94% 29.56 in 3.1 mi Variable 1.2 mph - N/A Rain Rain
11:30 PM 57.2 °F 57.2 °F 100% 29.56 in 5.0 mi West 3.5 mph - N/A Rain Light Rain